STARLINK-36138 (67030 NORAD) Tracking and Keplerian Element Data

This shows tracking and keplerian element data for the satellite.

Feedback or suggestion? Click here.




ElementValue
Catalog67030
NameSTARLINK-36138
Epoch Orbit132
Epoch Day354.25003472
Epoch Year2025
RAAN136.2967
Inclination42.9997
Eccentricity0.0001523
Argument of Perigee264.6771
Mean Anonmoly320.3129
Mean Motion15.88515139
Decay Rate-0.01314518
L11 67030U 25294A 25354.25003472 -.01314518 00000+0 -51661-2 0 9995
L22 67030 42.9997 136.2967 0001523 264.6771 320.3129 15.88515139 1328



Live tracking and technical data element details for STARLINK-36138 (NORAD 67030). STARLINK-36138 can be tracked NOW for your location showing map with azimuth and elevation plus other details from your city location.







IsCatalogInMostPopularTable: catalog: 67030, numindb: 22
Update: records affected: 1



GetName: 67030 STARLINK-36138

Hit Count: updated at: Fri, 16 Jan 2026 08:29:07 GMT